Regional Weather Roundup
Issued by NWS

Home | Current Version | Previous Version | Graphics & Text | Print | Product List | Glossary On
Versions: 1 2 3 4 5 6 7 8 9 10 11 12 13 14 15 16 17 18 19 20 21 22 23 24 25 26 27 28 29 30 31 32 33 34 35 36 37 38 39 40 41 42 43 44 45 46 47 48 49 50
000
ASUS45 KABQ 280610
RWRNM
NEW MEXICO REGIONAL WEATHER ROUNDUP
NATIONAL WEATHER SERVICE ALBUQUERQUE NM
1200 AM MDT WED JUN 28 2017

NOTE: "FAIR" MEANS FEW OR NO CLOUDS BELOW 12,000 FEET AGL WITH NO
       SIGNIFICANT WEATHER OR OBSTRUCTIONS TO VISION.

      THIS PRODUCT IS RELEASED AS TWO VERSIONS.  ONE VERSION NEAR
      THE TOP OF THE HOUR CONTAINING PRELIMINARY DATA FROM ALBUQUERQUE
      AND OTHER STATIONS.  A FINAL VERSION WITH ADDITIONAL DATA IS
      ISSUED ABOUT 10 MINUTES AFTER THE HOUR.

NMZ501-503-504-510>518-280700-
NORTHWEST PLATEAU/NORTHCENTRAL MOUNTAINS

CITY           SKY/WX    TMP DP  RH WIND       PRES   REMARKS
FARMINGTON     FAIR      62  12  14 CALM      29.94R
6HR MIN TEMP:  61; 6HR MAX TEMP:  94;

LOS ALAMOS     FAIR      67  36  31 S12       30.12F
SANTA FE       FAIR      68  41  37 SE6       30.07S
6HR MIN TEMP:  68; 6HR MAX TEMP:  91;

TAOS           FAIR      64  36  34 NE5       30.12R
ANGEL FIRE     FAIR      48  40  75 CALM      30.21S

$$
NMZ402-403-502-505>509-280700-
WESTCENTRAL MOUNTAINS/SOUTHWEST MOUNTAINS

CITY           SKY/WX    TMP DP  RH WIND       PRES   REMARKS
GALLUP         FAIR      69  16  13 SW10      30.11R
6HR MIN TEMP:  69; 6HR MAX TEMP:  90;

GRANTS         FAIR      71  15  11 W9        30.12S
SILVER CITY    FAIR      67  36  30 N8        30.08S

$$
NMZ407-409-411-412-280700-
SOUTHERN DESERTS

CITY           SKY/WX    TMP DP  RH WIND       PRES   REMARKS
DEMING         FAIR      80  47  31 W6        30.00S
6HR MIN TEMP:  79; 6HR MAX TEMP:  97;

LAS CRUCES     FAIR      80  46  29 S8        30.01S
HOLLOMAN AFB   FAIR      76  48  36 S9        29.97R
ALAMOGORDO     FAIR      73  45  35 SW3       29.98R
T OR C         FAIR      70  51  51 W5        30.02R
6HR MIN TEMP:  69; 6HR MAX TEMP:  84;


$$
NMZ519>523-280700-
CENTRAL VALLEYS/CENTRAL HIGHLANDS

CITY           SKY/WX    TMP DP  RH WIND       PRES   REMARKS
ALBUQUERQUE    FAIR      75  43  31 SE12      30.01R
6HR MIN TEMP:  75; 6HR MAX TEMP:  91;

DOUBLE EAGLE   FAIR      62  43  50 S9        30.04S
MORIARTY ARPT  FAIR      66  48  51 S10       30.08S
6HR MIN TEMP:  66; 6HR MAX TEMP:  90;

CLINES CORNERS FAIR      67  41  38 SW21      30.14S
6HR MIN TEMP:  66; 6HR MAX TEMP:  83;

BELEN          FAIR      73  41  32 S6        30.01S
6HR MIN TEMP:  72; 6HR MAX TEMP:  84;

SOCORRO        FAIR      71  49  45 SE5       30.00R
6HR MIN TEMP:  70; 6HR MAX TEMP:  81;


$$
NMZ524>526-539-540-280700-
SOUTHCENTRAL MOUNTAINS

CITY           SKY/WX    TMP DP  RH WIND       PRES   REMARKS
RUIDOSO        FAIR      63  45  51 S8        30.19S

$$
NMZ527>531-280700-
NORTHEAST HIGHLANDS/NORTHEAST PLAINS

CITY           SKY/WX    TMP DP  RH WIND       PRES   REMARKS
LAS VEGAS      FAIR      67  39  35 SW16      30.09S
6HR MIN TEMP:  66; 6HR MAX TEMP:  87; 6HR PCP: TRACE;

RATON          FAIR      61  48  62 N7        30.01S
6HR MIN TEMP:  61; 6HR MAX TEMP:  89;

CLAYTON        FAIR      68  54  60 S15       29.93S
6HR MIN TEMP:  68; 6HR MAX TEMP:  78; 6HR PCP:  0.07;


$$
NMZ532>537-280700-
EASTCENTRAL PLAINS

CITY           SKY/WX    TMP DP  RH WIND       PRES   REMARKS
SANTA ROSA     FAIR      76  47  35 S15G25    29.98R
TUCUMCARI      FAIR      77  52  41 SW17      29.89R
6HR MIN TEMP:  77; 6HR MAX TEMP:  94; 6HR PCP: TRACE;

CANNON AFB     FAIR      73  56  54 S12       29.99F
6HR MIN TEMP:  73; 6HR MAX TEMP:  90;

CLOVIS AIRPORT FAIR      71  56  58 S12       29.99S

$$
NMZ028-029-538-280700-
SOUTHEAST PLAINS

CITY           SKY/WX    TMP DP  RH WIND       PRES   REMARKS
ROSWELL        FAIR      76  51  41 SE8       29.95S
6HR MIN TEMP:  76; 6HR MAX TEMP:  95;

ARTESIA        FAIR      77  54  44 S10       29.96S
CARLSBAD       FAIR      76  56  49 S8        29.94R
6HR MIN TEMP:  76; 6HR MAX TEMP:  94;

HOBBS          FAIR      75  59  57 SE15G23   30.01R


$$




USA.gov is the U.S. government's official web portal to all federal, state and local government web resources and services.